Date,TemperatureHighF,TemperatureAvgF,TemperatureLowF,DewpointHighF,DewpointAvgF,DewpointLowF,HumidityHigh,HumidityAvg,HumidityLow,PressureMaxIn,PressureMinIn,WindSpeedMaxMPH,WindSpeedAvgMPH,GustSpeedMaxMPH,PrecipitationSumIn
2013-3-1,39.8,34.8,29.5,34.2,30.2,27.7,95,84,70,29.36,29.21,0,0,0,0.00
2013-3-2,46.8,35.7,29.3,33.7,28.4,25.7,87,75,57,29.36,29.29,0,0,0,0.00
2013-3-3,41.9,33.5,29.2,34.9,28.4,25.5,88,82,64,29.33,29.23,0,0,0,0.05
2013-3-4,37.8,32.0,28.1,28.0,24.4,21.4,82,73,63,29.46,29.26,0,0,0,0.00
2013-3-5,50.2,35.7,26.5,33.3,26.9,21.0,85,71,48,29.76,29.45,0,0,0,0.00
2013-3-6,39.8,35.8,32.8,32.6,29.8,26.4,90,79,63,29.86,29.74,0,0,0,0.00
2013-3-7,37.8,32.9,31.0,29.6,27.6,25.1,89,81,67,29.83,29.72,0,0,0,0.00
2013-3-8,47.0,36.2,30.6,32.7,28.4,25.2,91,75,44,29.83,29.67,0,0,0,0.17
2013-3-9,60.5,46.4,28.8,33.9,24.4,13.1,76,47,20,30.04,29.88,0,0,0,0.00
2013-3-10,53.5,36.7,22.3,34.7,27.0,18.3,86,70,45,30.08,29.95,0,0,0,0.00
2013-3-11,56.2,41.6,31.3,37.7,32.6,28.0,89,72,47,29.98,29.79,0,0,0,0.00
2013-3-12,49.5,44.7,37.3,48.3,43.0,32.2,96,94,82,29.79,29.37,0,0,0,0.40
2013-3-13,51.8,41.0,29.0,44.9,32.8,23.1,95,75,47,29.44,29.37,0,0,0,0.00
2013-3-14,38.3,29.8,20.3,24.8,19.0,7.5,86,65,47,29.49,29.35,0,0,0,0.00
2013-3-15,43.4,28.7,16.9,28.6,14.8,5.1,89,58,31,29.51,29.27,0,0,0,0.00
2013-3-16,40.0,30.9,23.6,26.0,17.4,12.9,84,59,40,29.56,29.35,0,0,0,0.01
2013-3-17,39.2,27.4,18.5,17.2,10.3,2.4,76,51,28,29.99,29.55,0,0,0,0.00
2013-3-18,42.5,27.6,11.2,21.8,8.2,1.7,70,46,27,30.11,29.90,0,0,0,0.00
2013-3-19,34.9,30.7,25.9,31.3,27.2,21.6,92,86,68,29.90,29.36,0,0,0,0.05
2013-3-20,38.5,30.8,25.6,26.3,22.9,17.7,88,73,55,29.43,29.33,0,0,0,0.13
2013-3-21,48.1,30.6,13.7,27.3,18.4,9.5,85,63,34,29.45,29.27,0,0,0,0.12
2013-3-22,45.0,32.3,22.3,26.0,20.2,15.5,79,62,39,29.37,29.28,0,0,0,0.00
2013-3-23,43.6,34.0,22.5,24.3,21.3,16.4,81,61,42,29.43,29.29,0,0,0,0.00
2013-3-24,51.7,38.6,29.2,29.2,24.8,20.9,76,59,40,29.49,29.42,0,0,0,0.00
2013-3-25,47.0,35.5,25.2,32.8,26.0,20.3,83,69,51,29.47,29.22,0,0,0,0.00
2013-3-26,56.5,41.4,32.0,32.0,25.7,19.6,80,57,30,29.46,29.25,0,0,0,0.00
2013-3-27,58.7,40.2,25.0,32.3,26.4,19.8,82,61,33,29.56,29.43,0,0,0,0.00
2013-3-28,51.1,41.3,32.6,38.8,32.5,26.6,88,72,52,29.69,29.56,0,0,0,0.01
2013-3-29,61.2,43.4,31.0,40.4,32.2,27.0,89,67,41,29.72,29.65,0,0,0,0.00
2013-3-30,60.7,43.4,30.2,33.1,25.1,16.7,85,54,24,29.78,29.68,0,0,0,0.00
2013-3-31,62.5,42.9,24.1,38.0,25.5,17.6,83,55,25,29.79,29.46,0,0,0,0.00